DateTimeUTC,F1_A11,F1_S11,BsB_S11,BsG_S11,BsR_S11,BbsB_S11,BbsG_S11,BbsR_S11,BaB_A11,BaG_A11,BaR_A11,T_S11,U_S11,P_S11,T1_A11
2020-05-28T00:00:00Z,00000388,20000608,,,,,,,,,,25.5,01.3,0662.2,31.1
2020-05-28T00:01:00Z,00000388,20000608,,,,,,,,,,25.5,01.3,0662.2,31.1
2020-05-28T00:02:00Z,00000388,20000608,,,,,,,,,,25.5,01.1,0662.2,31.1
2020-05-28T00:03:00Z,00000388,60000608,,,,,,,,,,25.5,01.1,0662.2,31.1
2020-05-28T00:04:00Z,00000388,40000608,0000.29,0000.48,0000.28,0000.89,-000.06,0000.01,-000.03,0000.02,-000.15,25.3,01.2,0663.2,31.1
2020-05-28T00:05:00Z,00000388,01000608,0001.17,0000.26,0000.27,-000.12,-000.10,0000.06,-000.08,-000.13,-000.04,25.3,01.2,0663.2,31.1
2020-05-28T00:06:00Z,00000388,01000608,0001.22,0000.04,0000.00,0000.79,0000.09,0000.30,-000.14,-000.16,0000.04,25.3,01.1,0663.2,31.1
2020-05-28T00:07:00Z,00000388,01000608,0000.14,-000.30,-000.20,0000.50,0000.29,-000.23,-000.16,-000.11,-000.07,25.2,01.1,0663.3,31.1
2020-05-28T00:08:00Z,00000388,01000608,-000.09,0000.91,0000.44,-000.13,-000.21,0000.00,0000.01,0000.03,0000.04,25.2,01.1,0663.3,31.1
2020-05-28T00:09:00Z,00000388,01000608,0000.71,0000.38,-000.04,0000.27,0000.13,0000.03,-000.11,-000.04,-000.12,25.2,01.0,0663.3,31.1
2020-05-28T00:10:00Z,00000388,01000608,-000.11,0000.39,0000.12,0000.74,-000.27,-000.42,-000.17,-000.14,-000.03,25.2,01.0,0663.3,31.1
2020-05-28T00:11:00Z,00000388,01000608,0001.17,0000.50,0000.29,0001.26,0000.29,-000.02,0000.02,0000.04,0000.06,25.2,01.0,0663.3,31.1
2020-05-28T00:12:00Z,00000388,01000608,-001.29,0000.43,-000.18,0000.17,-000.24,-000.04,0000.01,-000.11,-000.02,25.2,01.0,0663.3,31.1
2020-05-28T00:13:00Z,00000388,01000608,-000.43,-000.04,0000.38,0000.04,-000.36,0000.39,-000.13,-000.10,-000.24,25.2,00.9,0663.3,31.1
2020-05-28T00:14:00Z,00000388,01000608,0000.68,0000.69,0000.30,0000.72,-000.04,0000.32,-000.03,0000.02,0000.05,25.2,00.9,0663.3,31.1
2020-05-28T00:15:00Z,00000388,01000608,-000.65,0000.22,0000.36,0000.57,0000.23,0000.16,0000.23,0000.10,0000.14,25.2,01.0,0663.3,31.1
2020-05-28T00:16:00Z,00000388,01000608,0000.63,0000.04,0000.33,-000.52,-000.26,0000.68,-000.20,0000.08,0000.01,25.2,00.9,0663.3,31.1
2020-05-28T00:17:00Z,00000388,01000608,0000.90,-000.13,0000.03,-000.66,-000.15,-000.11,0000.11,0000.04,-000.03,25.2,00.9,0663.3,31.1
2020-05-28T00:18:00Z,00000388,01000608,-000.28,0000.75,0000.44,0000.55,-000.04,-000.08,0000.33,0000.21,0000.24,25.2,01.0,0663.3,31.1
2020-05-28T00:19:00Z,00000388,01000608,0000.41,0000.18,0000.65,0000.25,-000.13,0000.22,0000.03,-000.05,-000.04,25.2,01.1,0663.3,31.1
2020-05-28T00:20:00Z,00000388,01000608,0000.42,-000.12,-000.54,0000.83,-000.18,0000.21,-000.00,0000.14,0000.11,25.2,01.1,0663.3,31.1
2020-05-28T00:21:00Z,00000388,01000608,-000.04,0000.15,0000.53,-000.26,-000.27,0000.13,0000.05,-000.29,-000.07,25.2,01.1,0663.3,31.1
2020-05-28T00:22:00Z,00000388,01000608,0000.09,0000.20,0000.33,-000.05,0000.08,0000.16,0000.09,0000.18,-000.07,25.1,01.1,0663.3,31.1
2020-05-28T00:23:00Z,00000388,01000608,0000.71,0000.58,0000.45,0000.27,0000.03,0000.09,-000.01,0000.02,0000.01,25.2,01.0,0663.3,31.1
2020-05-28T00:24:00Z,00000388,01000608,-000.18,0000.25,0000.42,0001.45,-000.24,0000.50,-000.15,0000.06,0000.03,25.1,01.0,0663.3,31.1
2020-05-28T00:25:00Z,00000388,01000608,0000.08,0000.85,0000.46,0000.12,-000.07,0000.28,0000.16,-000.07,0000.01,25.1,01.0,0663.3,31.1
2020-05-28T00:26:00Z,00000388,01000608,-000.63,0000.35,-000.01,-000.60,-000.12,0000.14,-000.16,-000.09,-000.10,25.2,01.0,0663.3,31.1
2020-05-28T00:27:00Z,00000380,01000600,0000.70,0001.07,-000.09,0000.29,-000.02,0000.28,-000.01,0000.09,0000.09,25.1,01.0,0663.3,31.1
2020-05-28T00:28:00Z,00000380,01000600,0000.47,0001.04,0000.23,0000.24,-000.41,-000.13,0000.05,-000.05,-000.05,25.1,01.0,0663.3,31.1
2020-05-28T00:29:00Z,00000380,01000600,-000.48,0000.53,0000.42,-000.02,0000.03,0000.19,-000.09,0000.02,-000.08,25.1,01.0,0663.3,31.1
2020-05-28T00:30:00Z,00000380,01000600,0000.93,0000.51,0000.17,0000.17,0000.07,0000.42,-000.03,-000.15,-000.05,25.1,00.9,0663.3,31.1
2020-05-28T00:31:00Z,00000380,01000600,0000.79,0000.93,-000.11,0000.25,-000.38,-000.33,-000.09,0000.05,0000.06,25.1,00.9,0663.3,31.1
2020-05-28T00:32:00Z,00000380,01000600,0000.26,0000.19,0000.12,0000.12,-000.16,-000.05,-000.06,-000.29,-000.13,25.1,00.9,0663.3,31.1
2020-05-28T00:33:00Z,00000380,01000600,-000.20,0000.26,-000.09,0000.53,-000.18,-000.03,-000.18,-000.08,0000.00,25.1,00.8,0663.3,31.1
2020-05-28T00:34:00Z,00000380,01000600,0000.56,-000.04,-000.48,0000.51,0000.06,0000.16,-000.02,-000.07,-000.21,25.1,00.8,0663.3,31.1
2020-05-28T00:35:00Z,00000380,01000600,0001.40,0000.28,0000.13,0000.62,-000.16,0000.53,-000.10,0000.04,-000.02,25.1,00.7,0663.3,31.1
2020-05-28T00:36:00Z,00000380,01000600,0001.14,0000.34,0000.17,-000.09,-000.04,-000.09,-000.22,-000.12,0000.01,25.1,00.7,0663.3,31.1
2020-05-28T00:37:00Z,00000380,01000600,0000.36,0000.34,0000.10,-000.49,-000.49,-000.06,0000.02,-000.15,-000.09,25.1,00.7,0663.3,31.1
2020-05-28T00:38:00Z,00000380,01000600,0000.92,0000.09,-000.34,0000.67,0000.18,-000.19,-000.09,0000.03,0000.04,25.1,00.6,0663.3,31.1
2020-05-28T00:39:00Z,00000380,01000600,0000.72,0000.03,0000.07,-000.07,-000.05,-000.01,-000.15,-000.09,-000.14,25.1,00.6,0663.3,31.1
2020-05-28T00:40:00Z,00000380,01000600,0001.03,0000.32,-000.16,0001.03,-000.03,-000.49,-000.04,-000.16,-000.06,25.1,00.6,0663.3,31.1
2020-05-28T00:41:00Z,00000380,01000600,-000.81,0000.22,0000.03,0001.03,-000.31,-000.01,-000.12,0000.08,-000.10,25.1,00.5,0663.3,31.1
2020-05-28T00:42:00Z,00000380,01000600,0000.09,0000.63,0000.39,0001.01,0000.32,0000.16,-000.04,-000.17,0000.11,25.1,00.5,0663.3,31.1
2020-05-28T00:43:00Z,00000380,01000600,0002.28,0000.45,-000.09,0001.17,0000.04,-000.16,0000.06,0000.05,0000.00,25.1,00.4,0663.3,31.1
2020-05-28T00:44:00Z,00000380,01000600,0000.85,0000.46,0000.01,0000.91,0000.25,0000.22,0000.03,0000.01,-000.09,25.1,00.5,0663.3,31.1
2020-05-28T00:45:00Z,00000380,01000600,0000.42,0000.91,-000.30,0000.17,0000.35,0000.02,0000.04,0000.00,0000.19,25.1,00.5,0663.3,31.1
2020-05-28T00:46:00Z,00000380,01000600,0000.30,0000.36,-000.20,-000.47,-000.08,0000.09,0000.00,0000.06,-000.08,25.1,00.5,0663.3,31.1
2020-05-28T00:47:00Z,00000380,01000600,0000.06,0000.12,0000.06,0000.93,-000.60,0000.28,0000.05,-000.06,0000.02,25.1,00.6,0663.3,31.1
2020-05-28T00:48:00Z,00000380,01000600,0001.21,0000.16,-000.19,0000.73,-000.01,-000.17,0000.03,0000.21,-000.00,25.1,00.6,0663.3,31.1
2020-05-28T00:49:00Z,00000380,01000600,0001.26,0000.46,0000.11,0000.40,0000.02,-000.03,-000.12,-000.23,-000.14,25.1,00.5,0663.3,31.1
2020-05-28T00:50:00Z,00000380,01000600,0001.41,0000.81,0000.15,-000.22,-000.05,-000.03,-000.00,0000.09,0000.03,25.1,00.5,0663.3,31.1
2020-05-28T00:51:00Z,00000380,01000600,0000.24,0000.44,0000.42,0000.25,-000.36,0000.52,-000.02,-000.13,0000.19,25.1,00.5,0663.3,31.1
2020-05-28T00:52:00Z,00000380,01000600,-000.26,0000.89,0000.22,-000.27,-000.15,0000.13,-000.04,-000.09,-000.08,25.1,00.5,0663.4,31.1
2020-05-28T00:53:00Z,00000380,01000600,0000.20,0000.18,-000.21,-000.17,-000.34,0000.53,-000.38,-000.11,-000.31,25.1,00.3,0663.4,31.1
2020-05-28T00:54:00Z,00000380,01000600,0000.25,0000.69,-000.49,0000.34,-000.24,-000.29,-000.08,-000.05,0000.15,25.1,00.4,0663.4,31.1
2020-05-28T00:55:00Z,00000380,01000600,0000.54,0000.48,0000.22,0000.94,-000.11,0000.11,-000.02,-000.13,-000.05,25.0,00.3,0663.4,31.1
2020-05-28T00:56:00Z,00000380,01000600,0000.46,0000.50,0000.36,0001.50,0000.15,0000.03,-000.18,-000.18,-000.27,25.0,00.3,0663.4,31.1
2020-05-28T00:57:00Z,00000380,41000600,,,,,,,,,,25.1,00.0,0663.5,31.1
2020-05-28T00:58:00Z,00000380,61000600,,,,,,,,,,25.2,00.3,0662.4,31.1
2020-05-28T00:59:00Z,00000380,21000600,,,,,,,,,,25.3,00.2,0662.4,31.1
2020-05-28T01:00:00Z,00000380,21000600,,,,,,,,,,25.3,00.2,0662.4,31.1
2020-05-28T01:01:00Z,00000380,21000600,,,,,,,,,,25.3,00.2,0662.4,31.1
2020-05-28T01:02:00Z,00000380,21000600,,,,,,,,,,25.3,00.1,0662.4,31.1
2020-05-28T01:03:00Z,00000380,61000600,,,,,,,,,,25.3,00.0,0662.4,31.1
2020-05-28T01:04:00Z,00000380,41000600,-000.39,-000.19,-000.43,0000.70,0000.23,0000.15,0000.05,0000.16,0000.08,25.1,00.2,0663.3,31.1
2020-05-28T01:05:00Z,00000380,01000600,0000.01,0000.43,0000.17,0000.64,0000.43,-000.09,0000.06,-000.11,-000.04,25.1,00.2,0663.4,31.1
2020-05-28T01:06:00Z,00000380,01000600,0000.35,0000.07,-000.30,0000.52,-000.35,0000.28,0000.18,0000.21,0000.18,25.0,00.2,0663.4,31.1
2020-05-28T01:07:00Z,00000380,01000600,0000.67,0000.51,0000.17,0000.84,-000.18,-000.01,-000.20,-000.19,-000.11,25.0,00.2,0663.4,31.1
2020-05-28T01:08:00Z,00000380,01000600,-000.09,-000.05,0000.37,0000.45,0000.44,0000.30,-000.11,-000.15,-000.25,25.0,00.2,0663.4,31.1
2020-05-28T01:09:00Z,00000380,01000600,-000.26,-000.11,0001.02,0000.18,-000.13,0000.40,-000.10,-000.09,0000.05,25.0,00.2,0663.5,31.1
2020-05-28T01:10:00Z,00000380,01000600,0000.24,-000.17,0000.46,-000.36,-000.06,-000.20,-000.10,-000.07,-000.02,25.0,00.1,0663.5,31.1
2020-05-28T01:11:00Z,00000380,01000600,0000.66,0000.10,-000.32,0000.67,-000.15,-000.05,0000.11,0000.08,-000.06,25.0,00.1,0663.5,31.1
2020-05-28T01:12:00Z,00000380,01000600,0001.09,-000.29,0000.53,0000.78,-000.15,0000.30,-000.14,-000.17,-000.01,25.0,00.1,0663.5,31.1
2020-05-28T01:13:00Z,00000380,01000600,-000.42,0000.04,0000.17,0000.32,-000.30,-000.09,-000.17,-000.08,0000.04,25.0,00.1,0663.5,31.1
2020-05-28T01:14:00Z,00000380,01000600,-000.06,-000.21,0000.02,0000.40,-000.02,0000.15,-000.01,-000.00,-000.26,25.0,00.1,0663.5,31.1
2020-05-28T01:15:00Z,00000380,01000600,0000.43,-000.45,0000.43,0000.54,-000.08,0000.48,0000.10,0000.07,0000.28,25.0,00.1,0663.5,31.1
2020-05-28T01:16:00Z,00000380,01000600,-000.06,-000.76,0000.64,0000.31,0000.30,0000.67,0000.17,0000.07,-000.04,25.0,00.1,0663.5,31.1
2020-05-28T01:17:00Z,00000380,01000600,0001.33,-000.24,-000.24,-000.01,-000.09,-000.19,-000.11,0000.15,0000.08,25.0,00.1,0663.5,31.1
2020-05-28T01:18:00Z,00000380,01000600,0000.01,-000.16,0000.23,-000.21,0000.13,0000.01,0000.11,-000.06,-000.03,25.0,00.2,0663.5,31.1
2020-05-28T01:19:00Z,00000380,01000600,0000.49,0000.36,0000.46,-000.06,0000.40,0000.71,0000.17,0000.22,0000.16,25.0,00.1,0663.6,31.1
2020-05-28T01:20:00Z,00000380,01000600,0000.14,0000.28,-000.00,-000.72,-000.20,0000.51,-000.03,-000.12,-000.07,25.0,00.1,0663.6,31.1
2020-05-28T01:21:00Z,00000380,01000600,0001.24,0000.29,-000.17,0000.03,-000.12,-000.08,-000.03,0000.07,0000.09,24.9,00.1,0663.6,31.1
2020-05-28T01:22:00Z,00000380,01000600,-000.04,-000.08,-000.13,0000.58,-000.05,0000.01,0000.04,0000.05,-000.12,24.9,00.1,0663.6,31.1
2020-05-28T01:23:00Z,00000380,01000600,0001.19,0000.61,0000.59,0001.60,0000.26,0000.75,0000.01,0000.05,0000.16,24.9,00.1,0663.6,31.1
2020-05-28T01:24:00Z,00000380,01000600,0000.38,0000.19,0000.61,0001.20,0000.25,0000.22,0000.00,-000.00,-000.16,24.9,00.1,0663.6,31.1
2020-05-28T01:25:00Z,00000380,01000600,0001.72,0000.01,0000.43,-000.01,-000.02,0000.35,0000.07,-000.03,-000.03,24.9,00.1,0663.6,31.1
2020-05-28T01:26:00Z,00000380,01000600,0000.83,0000.27,0000.46,0000.27,0000.21,-000.15,-000.04,0000.15,0000.10,24.9,00.2,0663.6,31.1
2020-05-28T01:27:00Z,00000380,01000600,0000.08,-000.24,0000.75,-000.33,0000.07,0000.33,0000.15,0000.02,-000.05,24.9,00.1,0663.6,31.1
2020-05-28T01:28:00Z,00000380,01000600,-000.18,0000.58,0000.25,0001.16,-000.02,-000.05,0000.04,0000.04,0000.18,24.9,00.1,0663.6,31.1
2020-05-28T01:29:00Z,00000380,01000600,0000.59,0000.24,0000.37,0000.64,0000.08,0000.12,-000.17,-000.07,-000.06,24.9,00.1,0663.6,31.1
2020-05-28T01:30:00Z,00000380,01000600,0000.09,-000.21,-000.48,0000.90,0000.01,0000.17,0000.13,0000.13,-000.01,24.8,00.1,0663.6,31.1
2020-05-28T01:31:00Z,00000380,01000600,-000.01,0000.46,0000.33,0000.42,0000.35,0000.42,0000.11,-000.02,0000.12,24.9,00.2,0663.6,31.1
2020-05-28T01:32:00Z,00000380,01000600,0000.73,-000.02,0000.14,0000.34,0000.18,0000.11,-000.01,0000.10,0000.05,24.9,00.1,0663.6,31.1
2020-05-28T01:33:00Z,00000380,01000600,-000.27,-000.11,-000.11,-000.02,-000.21,0000.13,0000.09,0000.00,-000.02,24.9,00.2,0663.6,31.1
2020-05-28T01:34:00Z,00000380,01000600,0000.23,-000.10,0000.54,-000.04,0000.28,-000.08,0000.01,-000.01,0000.01,24.9,00.2,0663.6,31.1
2020-05-28T01:35:00Z,00000380,01000600,-000.51,-000.05,0000.29,0001.40,-000.23,-000.00,-000.12,-000.10,-000.02,24.8,00.1,0663.6,31.1
2020-05-28T01:36:00Z,00000380,01000600,0000.42,0000.44,0000.66,0001.24,-000.19,0000.44,-000.17,-000.01,-000.17,24.9,00.1,0663.6,31.1
2020-05-28T01:37:00Z,00000380,01000600,0000.11,-000.27,-000.05,0000.59,0000.52,0000.46,-000.01,-000.30,-000.14,24.8,00.1,0663.6,31.1
2020-05-28T01:38:00Z,00000380,01000600,0000.47,-000.24,0000.30,0001.09,0000.16,-000.15,-000.10,0000.14,0000.11,24.9,00.0,0663.6,31.1
2020-05-28T01:39:00Z,00000380,01000600,0000.99,0000.07,0000.29,0001.27,-000.21,-000.10,-000.11,-000.20,-000.11,24.9,00.0,0663.6,31.1
2020-05-28T01:40:00Z,00000380,01000600,0000.59,0000.26,-000.17,0000.11,0000.24,0000.11,0000.11,0000.08,0000.03,24.8,00.0,0663.6,31.1
2020-05-28T01:41:00Z,00000380,01000600,0000.58,0000.12,0000.65,-000.17,-000.03,0000.44,-000.01,-000.00,0000.05,24.8,00.1,0663.6,31.1
2020-05-28T01:42:00Z,00000380,01000600,0000.39,0000.26,0000.13,0000.29,-000.02,0000.21,0000.13,0000.16,0000.05,24.8,00.0,0663.6,31.1
2020-05-28T01:43:00Z,00000380,01000600,0000.45,0000.15,-000.22,0000.67,0000.05,-000.01,0000.01,0000.10,0000.07,24.8,00.0,0663.6,31.1
2020-05-28T01:44:00Z,00000380,01000600,0000.37,-000.38,0000.14,0000.58,-000.06,0000.35,0000.07,0000.02,-000.02,24.8,00.1,0663.6,31.1
2020-05-28T01:45:00Z,00000380,01000600,0001.33,-000.06,0000.28,-000.26,-000.38,0000.46,0000.07,0000.22,0000.19,24.8,00.1,0663.6,31.1
2020-05-28T01:46:00Z,00000380,01000600,0000.08,-000.40,0000.13,-000.39,0000.04,0000.18,0000.24,0000.03,0000.13,24.8,00.1,0663.6,31.1
2020-05-28T01:47:00Z,00000380,01000600,0000.20,0000.09,0000.59,0000.76,0000.13,0000.46,0000.12,-000.01,0000.12,24.8,00.1,0663.6,31.1
2020-05-28T01:48:00Z,00000380,01000600,-000.49,-000.47,0000.05,0000.14,-000.05,-000.01,-000.07,0000.27,-000.07,24.8,00.2,0663.6,31.1
2020-05-28T01:49:00Z,00000380,01000600,0000.71,0000.09,0000.49,-000.22,0000.24,0000.37,0000.21,0000.03,0000.11,24.8,00.2,0663.6,31.1
2020-05-28T01:50:00Z,00000380,01000600,0000.75,-000.15,-000.03,0000.19,-000.11,-000.03,0000.33,0000.14,0000.11,24.8,00.2,0663.6,31.1
2020-05-28T01:51:00Z,00000380,01000600,0000.36,0000.06,0000.30,-000.15,0000.07,0000.09,0000.11,0000.12,-000.01,24.8,00.3,0663.6,31.1
2020-05-28T01:52:00Z,00000380,01000600,0000.01,0000.13,0000.41,0000.57,0000.01,0000.06,0000.07,0000.17,0000.14,24.8,00.3,0663.6,31.1
2020-05-28T01:53:00Z,00000380,01000600,-000.04,-000.30,0000.08,0000.36,0000.33,0000.07,-000.06,0000.04,0000.13,24.8,00.3,0663.6,31.1
2020-05-28T01:54:00Z,00000380,01000600,0000.45,-000.01,0000.22,0000.53,0000.27,0000.24,0000.16,-000.07,0000.06,24.8,00.3,0663.7,31.1
2020-05-28T01:55:00Z,00000380,01000600,0000.90,0000.39,0000.04,-000.19,0000.25,0000.17,-000.19,-000.03,-000.21,24.8,00.3,0663.7,31.1
2020-05-28T01:56:00Z,00000380,01000600,0000.93,0000.61,-000.21,0000.32,0000.07,-000.51,0000.08,-000.05,0000.02,24.8,00.3,0663.6,31.1
2020-05-28T01:57:00Z,00000380,41000600,,,,,,,,,,24.8,00.2,0663.6,31.1
2020-05-28T01:58:00Z,00000380,61000600,,,,,,,,,,24.9,00.0,0662.7,31.1
2020-05-28T01:59:00Z,00000380,21000600,,,,,,,,,,25.0,00.0,0662.7,31.1
2020-05-28T02:00:00Z,00000380,21000600,,,,,,,,,,25.0,00.0,0662.7,31.1
2020-05-28T02:01:00Z,00000380,21000600,,,,,,,,,,25.0,00.0,0662.7,31.1
2020-05-28T02:02:00Z,00000380,21000600,,,,,,,,,,25.0,00.0,0662.7,31.1
2020-05-28T02:03:00Z,00000380,61000600,,,,,,,,,,25.0,00.0,0662.7,31.1
2020-05-28T02:04:00Z,00000380,41000600,0000.19,0000.19,-000.08,0000.45,-000.12,-000.04,0000.05,0000.27,-000.01,24.8,00.2,0663.6,31.1
2020-05-28T02:05:00Z,00000380,01000600,-000.23,0001.04,-000.15,0000.85,-000.17,-000.00,0000.19,0000.03,0000.02,24.8,00.2,0663.7,31.1
2020-05-28T02:06:00Z,00000380,01000600,0000.04,0000.70,0000.56,0000.61,0000.50,-000.16,0000.10,0000.03,0000.20,24.8,00.2,0663.7,31.1
2020-05-28T02:07:00Z,00000380,01000600,-000.40,0000.37,0000.69,-000.24,0000.10,-000.09,-000.04,0000.11,-000.03,24.7,00.2,0663.7,31.1
2020-05-28T02:08:00Z,00000380,01000600,-000.68,0000.65,0000.60,-000.19,0000.03,0000.11,-000.05,0000.01,0000.05,24.7,00.2,0663.7,31.1
2020-05-28T02:09:00Z,00000380,01000600,0000.12,0000.01,0000.12,0000.06,-000.02,-000.37,0000.22,0000.08,-000.02,24.7,00.2,0663.7,31.1
2020-05-28T02:10:00Z,00000380,01000600,-000.49,0000.98,0000.35,0000.22,-000.16,0000.34,0000.08,0000.09,0000.24,24.7,00.2,0663.7,31.1
2020-05-28T02:11:00Z,00000380,01000600,-000.69,0000.57,0000.74,-000.26,0000.19,0000.30,0000.21,0000.19,0000.01,24.7,00.2,0663.7,31.1
2020-05-28T02:12:00Z,00000380,01000600,0000.19,0000.61,0000.64,-000.79,0000.12,0000.34,0000.15,-000.02,0000.05,24.7,00.2,0663.6,31.1
2020-05-28T02:13:00Z,00000380,01000600,0001.38,0000.41,0000.69,0000.65,-000.06,-000.13,-000.11,0000.15,0000.01,24.7,00.3,0663.7,31.1
2020-05-28T02:14:00Z,00000380,01000600,0000.21,0000.86,0000.47,0000.02,0000.30,0000.09,0000.17,0000.03,0000.13,24.7,00.3,0663.6,31.1
2020-05-28T02:15:00Z,00000380,01000600,0001.24,0000.50,0000.67,-000.33,-000.21,-000.60,0000.07,0000.07,0000.00,24.7,00.3,0663.7,31.1
2020-05-28T02:16:00Z,00000380,01000600,-000.99,0001.00,-000.29,0000.48,0000.21,0000.26,0000.12,0000.07,0000.09,24.7,00.2,0663.7,31.1
2020-05-28T02:17:00Z,00000380,01000600,-000.36,0000.57,0000.49,0000.00,-000.01,0000.32,0000.06,0000.17,0000.04,24.7,00.3,0663.7,31.0
2020-05-28T02:18:00Z,00000380,01000600,0001.47,0000.19,0000.63,-000.19,0000.06,-000.05,0000.00,-000.03,-000.14,24.7,00.3,0663.7,31.1
2020-05-28T02:19:00Z,00000380,01000600,0001.10,-000.20,0000.36,0000.74,-000.02,0000.11,0000.21,-000.20,0000.09,24.7,00.3,0663.7,31.1
2020-05-28T02:20:00Z,00000380,01000600,0000.13,0000.71,0000.30,0000.35,-000.02,0000.24,-000.03,0000.34,0000.12,24.6,00.3,0663.7,31.1
2020-05-28T02:21:00Z,00000380,01000600,0000.27,0000.65,0000.72,0001.09,0000.31,0000.03,0000.05,-000.02,0000.02,24.6,00.3,0663.6,31.1
2020-05-28T02:22:00Z,00000380,01000600,0001.19,0001.15,0000.33,0000.89,-000.16,0000.35,0000.09,-000.08,0000.20,24.6,00.3,0663.6,31.0
2020-05-28T02:23:00Z,00000380,01000600,0001.78,0000.91,0000.32,0000.53,-000.22,0000.15,0000.09,0000.17,-000.03,24.6,00.4,0663.6,31.0
2020-05-28T02:24:00Z,00000380,01000600,0000.19,0000.63,0001.02,-000.33,-000.03,0000.73,0000.10,0000.25,-000.00,24.6,00.3,0663.6,31.0
2020-05-28T02:25:00Z,00000380,01000600,-000.37,0000.50,0000.29,-000.64,-000.04,0000.19,0000.13,0000.04,0000.21,24.6,00.4,0663.6,31.1
2020-05-28T02:26:00Z,00000380,01000600,-001.38,0000.90,0000.17,0000.60,0000.34,0000.29,0000.17,-000.01,-000.05,24.7,00.3,0663.6,31.1
2020-05-28T02:27:00Z,00000380,01000600,0000.60,0000.29,0000.49,0000.10,0000.03,0000.03,0000.10,0000.35,0000.15,24.6,00.3,0663.6,31.0
2020-05-28T02:28:00Z,00000380,01000600,0000.86,0000.80,0000.86,-000.36,0000.54,-000.18,0000.02,-000.04,0000.07,24.6,00.4,0663.6,31.0
2020-05-28T02:29:00Z,00000380,01000600,0000.38,0000.51,0000.26,-000.71,0000.34,-000.38,0000.21,0000.09,0000.13,24.6,00.3,0663.6,31.1
2020-05-28T02:30:00Z,00000380,01000600,-000.31,0001.24,0000.78,-000.51,-000.03,-000.37,0000.21,0000.30,0000.01,24.6,00.4,0663.6,31.0
2020-05-28T02:31:00Z,00000380,01000600,-000.64,0001.75,0000.14,-000.97,0000.09,0000.46,0000.22,0000.09,0000.22,24.6,00.4,0663.6,31.0
2020-05-28T02:32:00Z,00000380,01000600,0000.62,0000.60,0000.20,0000.04,0000.21,0000.29,0000.07,0000.12,-000.07,24.6,00.4,0663.6,31.1
2020-05-28T02:33:00Z,00000380,01000600,-000.49,0000.67,0000.60,-000.35,-000.09,0000.41,0000.03,0000.03,0000.07,24.6,00.4,0663.6,31.0
2020-05-28T02:34:00Z,00000380,01000600,0002.03,0000.72,0000.73,0000.52,0000.18,0000.31,0000.24,0000.09,0000.14,24.6,00.4,0663.6,31.0
2020-05-28T02:35:00Z,00000380,01000600,0000.88,0001.04,0000.30,0000.48,-000.40,-000.04,0000.01,0000.13,0000.12,24.6,00.5,0663.6,31.0
2020-05-28T02:36:00Z,00000380,01000600,0000.49,0001.42,0000.96,0000.96,-000.13,0000.36,0000.23,0000.22,0000.06,24.6,00.4,0663.6,31.0
2020-05-28T02:37:00Z,00000380,01000600,0000.98,0001.67,0001.17,-000.28,-000.08,0000.78,0000.01,-000.02,-000.22,24.6,00.4,0663.5,31.0
2020-05-28T02:38:00Z,00000380,01000600,0001.10,0000.45,0000.60,0000.30,0000.60,-000.34,0000.10,-000.00,0000.32,24.5,00.4,0663.5,31.0
2020-05-28T02:39:00Z,00000380,01000600,0001.33,0000.62,0000.82,0000.71,-000.17,0000.58,0000.20,0000.29,0000.09,24.5,00.5,0663.5,31.0
2020-05-28T02:40:00Z,00000380,01000600,0001.24,0001.39,0000.71,0000.77,0000.01,0000.46,0000.15,0000.09,0000.10,24.5,00.5,0663.5,31.1
2020-05-28T02:41:00Z,00000380,01000600,0001.01,0000.75,0000.45,-000.04,0000.19,0000.09,0000.17,0000.12,0000.05,24.5,00.5,0663.5,31.1
2020-05-28T02:42:00Z,00000380,01000600,0000.63,0000.42,0000.40,0000.50,0000.19,-000.32,0000.07,-000.09,0000.02,24.5,00.5,0663.5,31.0
2020-05-28T02:43:00Z,00000380,01000600,0001.49,0000.55,0000.36,-000.02,-000.08,0000.09,0000.10,0000.18,-000.05,24.5,00.5,0663.5,31.0
2020-05-28T02:44:00Z,00000380,01000600,0001.82,0000.71,-000.05,-000.87,-000.37,-000.08,0000.06,0000.20,0000.18,24.5,00.5,0663.5,31.0
2020-05-28T02:45:00Z,00000380,01000600,0001.79,0000.69,0000.99,0000.26,0000.35,0000.42,0000.25,0000.05,0000.16,24.5,00.5,0663.5,31.1
2020-05-28T02:46:00Z,00000380,01000600,0002.49,0001.30,0000.21,0000.03,-000.22,0000.20,0000.05,0000.06,0000.18,24.5,00.5,0663.5,31.0
2020-05-28T02:47:00Z,00000380,01000600,0000.95,0000.94,0000.93,-000.22,0000.19,-000.20,-000.02,0000.22,0000.01,24.5,00.5,0663.5,31.0
2020-05-28T02:48:00Z,00000380,01000600,0000.46,0001.58,0000.85,0000.88,0000.09,0000.04,0000.29,0000.02,-000.01,24.5,00.6,0663.5,31.0
2020-05-28T02:49:00Z,00000380,01000600,0000.32,0000.85,0000.30,-000.18,0000.16,0000.60,0000.01,0000.16,0000.22,24.5,00.5,0663.5,31.0
2020-05-28T02:50:00Z,00000380,01000600,0001.37,0001.16,0000.61,-000.53,0000.23,0000.09,0000.22,0000.09,0000.01,24.5,00.5,0663.5,31.0
2020-05-28T02:51:00Z,00000380,01000600,0001.22,0001.20,0000.84,0000.08,0000.19,0000.21,0000.01,0000.06,-000.02,24.5,00.6,0663.5,31.0
2020-05-28T02:52:00Z,00000380,01000600,0002.13,0001.46,0000.38,0000.49,0000.33,-000.05,0000.21,0000.18,0000.08,24.5,00.6,0663.5,31.0
2020-05-28T02:53:00Z,00000380,01000600,0001.39,0001.19,0001.13,0000.51,0000.33,-000.15,0000.18,-000.06,0000.20,24.5,00.6,0663.5,31.0
2020-05-28T02:54:00Z,00000380,01000600,0001.71,0001.46,0000.79,0000.43,-000.11,0000.10,0000.06,0000.39,0000.08,24.5,00.5,0663.5,31.0
2020-05-28T02:55:00Z,00000380,01000600,0003.00,0001.37,0000.62,0000.60,0000.27,0000.55,0000.34,0000.01,0000.12,24.5,00.6,0663.5,31.0
2020-05-28T02:56:00Z,00000380,01000600,0002.66,0001.37,0000.48,0001.00,0000.46,0000.25,0000.12,0000.12,0000.17,24.5,00.6,0663.5,31.0
2020-05-28T02:57:00Z,00000380,41000600,,,,,,,,,,24.5,00.4,0663.6,31.0
2020-05-28T02:58:00Z,00000380,61000600,,,,,,,,,,24.6,00.4,0662.5,31.0
2020-05-28T02:59:00Z,00000380,21000600,,,,,,,,,,24.7,00.4,0662.5,31.0
2020-05-28T03:00:00Z,00000380,21000600,,,,,,,,,,24.7,00.4,0662.5,31.1
2020-05-28T03:01:00Z,00000380,21000600,,,,,,,,,,24.7,00.4,0662.5,31.0
2020-05-28T03:02:00Z,00000380,21000600,,,,,,,,,,24.7,00.4,0662.5,31.0
2020-05-28T03:03:00Z,00000380,61000600,,,,,,,,,,24.7,00.4,0662.5,31.0
2020-05-28T03:04:00Z,00000380,41000600,0004.29,0002.25,0001.24,0000.88,-000.01,0000.27,0000.21,0000.21,0000.14,24.5,00.5,0663.4,31.0
2020-05-28T03:05:00Z,00000380,01000600,0003.77,0002.51,0001.29,0001.37,0000.45,-000.29,0000.33,0000.17,0000.10,24.5,00.6,0663.5,31.0
2020-05-28T03:06:00Z,00000380,01000600,0002.96,0002.66,0001.21,0000.63,0000.41,0000.11,0000.20,0000.24,0000.14,24.5,00.6,0663.5,31.0
2020-05-28T03:07:00Z,00000380,01000600,0003.08,0002.25,0001.42,0001.32,0000.52,0000.22,0000.14,0000.15,0000.36,24.5,00.6,0663.5,31.0
2020-05-28T03:08:00Z,00000380,01000600,0003.72,0003.20,0001.70,0000.43,0000.71,0000.10,0000.30,0000.11,0000.00,24.5,00.6,0663.5,31.0
2020-05-28T03:09:00Z,00000380,01000600,0003.65,0002.17,0001.31,0000.49,0000.20,-000.09,0000.13,0000.27,0000.16,24.4,00.7,0663.5,31.0
2020-05-28T03:10:00Z,00000380,01000600,0003.39,0002.21,0001.54,0000.38,0000.36,0000.16,0000.16,0000.20,0000.17,24.4,00.7,0663.5,31.0